Regional Weather Roundup
Issued by NWS

Home | Current Version | Previous Version | Graphics & Text | Print | Product List | Glossary On
Versions: 1 2 3 4 5 6 7 8 9 10 11 12 13 14 15 16 17 18 19 20 21 22 23 24 25 26 27 28 29 30 31 32 33 34 35 36 37 38 39 40 41 42 43 44 45 46 47 48 49 50
000
ASUS45 KCYS 290410
RWRWY

WYOMING REGIONAL WEATHER ROUNDUP
NATIONAL WEATHER SERVICE CHEYENNE WY
1000 PM MDT SAT MAR 28 2015

NOTE:  "FAIR" INDICATES FEW OR NO CLOUDS BELOW 12,000 FEET
WITH NO SIGNIFICANT WEATHER AND/OR OBSTRUCTIONS TO VISIBILITY.

WYZ001-290500-
YELLOWSTONE NATIONAL PARK

CITY           SKY/WX    TMP DP  RH WIND       PRES   REMARKS
LK YELLOWSTONE   N/A     31  11  43 CALM      30.27R
W YELLOWSTONE  NOT AVBL

$$
WYZ002>013-054>058-071-098>099-290500-
NORTHERN WYOMING

CITY           SKY/WX    TMP DP  RH WIND       PRES   REMARKS
JACKSON        CLOUDY    45  25  45 SE12      30.24R
CODY           FAIR      48  10  21 NW16      30.09R
GREYBULL       FAIR      52  13  21 NW30G39   30.02R
WORLAND        FAIR      51  14  22 N24G40    30.01R
SHERIDAN       FAIR      51  14  22 NW31G44   29.98R
BUFFALO        FAIR      48  14  25 N24G40    29.98R
GILLETTE       MOCLDY    51  14  22 NW29G41   29.92R
HULETT         CLOUDY    52  18  25 NW16G26   29.92R
NEWCASTLE      FAIR      52  23  32 NW23G31   29.90R

$$
WYZ014>020-022>026-101>103-290500-
CENTRAL WYOMING

CITY           SKY/WX    TMP DP  RH WIND       PRES   REMARKS
BIG PINEY      FAIR      40  19  43 N15       30.21R WCI  32
PINEDALE       FAIR      34  23  64 NW10      30.23R WCI  26
DUBOIS         CLOUDY    37  27  65 N30G40    30.20R WCI  25
LANDER         FAIR      54  12  18 W16       30.04R
RIVERTON       FAIR      52  17  25 NW16      30.04R
CASPER         FAIR      56  18  22 NW26G37   29.97R
DOUGLAS        CLOUDY    51  29  42 N16G25    29.97R

$$
WYZ021-027>030-104>119-290500-
SOUTHERN WYOMING

CITY           SKY/WX    TMP DP  RH WIND       PRES   REMARKS
EVANSTON       FAIR      43  23  45 SW8       30.27R
KEMMERER       FAIR      41  18  38 W14G20    30.23R
ROCK SPRINGS   FAIR      47  21  35 W10       30.20R
DIXON          FAIR      54  14  20 W8        30.15S
RAWLINS        FAIR      52  17  25 W32G43    30.08R
SARATOGA       FAIR      50  14  23 W16G24    30.12R
LARAMIE        FAIR      48  18  30 W16G23    30.07R
CHEYENNE       FAIR      59  26  28 W25G37    29.98R
TORRINGTON     FAIR      64  21  19 N22G41    29.85R
PINE BLUFFS    FAIR      61  27  27 W13       29.96R

$$



USA.gov is the U.S. government's official web portal to all federal, state and local government web resources and services.